LNLHM ENCN-ESSB

Flight info

Callsign LNLHM
Flight time 1h 8m
Altitude 41000
Route VAVET DCT REPKU DCT TINKA
Aircraft HDJT/L-SABDGRWY/H

Departure

Time 2026-04-24 12:00
Airport Kristiansand Airport (ENCN)

Arrival

Time 2026-04-24 13:08
Airport Stockholm-Bromma Airport (ESSB)
Time Latitude Longitude Altitude Speed Heading
2026-04-24 11:43 58.20123 8.07401 53 ft 0 kts 302°
2026-04-24 11:44 58.20125 8.07397 53 ft 0 kts 302°
2026-04-24 11:56 58.20125 8.07396 53 ft 1 kts 306°
2026-04-24 11:56 58.20139 8.07414 51 ft 7 kts 73°
2026-04-24 11:56 58.20183 8.07559 53 ft 18 kts 46°
2026-04-24 11:56 58.20300 8.07740 52 ft 23 kts 50°
2026-04-24 11:57 58.20399 8.07979 53 ft 23 kts 52°
2026-04-24 11:57 58.20479 8.08219 53 ft 18 kts 102°
2026-04-24 11:57 58.20424 8.08387 53 ft 13 kts 126°
2026-04-24 11:57 58.20434 8.08550 55 ft 17 kts 40°
2026-04-24 11:58 58.20562 8.08723 52 ft 28 kts 36°
2026-04-24 11:58 58.20747 8.08969 56 ft 36 kts 36°
2026-04-24 11:58 58.20961 8.09253 54 ft 38 kts 34°
2026-04-24 11:58 58.21112 8.09507 52 ft 23 kts 53°
2026-04-24 11:59 58.21143 8.09477 52 ft 8 kts 201°
2026-04-24 11:59 58.21089 8.09422 53 ft 9 kts 214°
2026-04-24 11:59 58.20960 8.09251 54 ft 56 kts 215°
2026-04-24 11:59 58.20416 8.08530 117 ft 121 kts 214°
2026-04-24 12:00 58.19662 8.07508 407 ft 149 kts 216°
2026-04-24 12:00 58.18733 8.06271 830 ft 176 kts 208°
2026-04-24 12:00 58.17507 8.05501 1360 ft 195 kts 198°
2026-04-24 12:00 58.16163 8.04732 1998 ft 208 kts 202°
2026-04-24 12:01 58.14753 8.03825 2667 ft 219 kts 202°
2026-04-24 12:01 58.13278 8.02877 3350 ft 228 kts 201°
2026-04-24 12:01 58.11741 8.01951 4045 ft 236 kts 195°
2026-04-24 12:01 58.10069 8.01898 4743 ft 246 kts 170°
2026-04-24 12:02 58.08455 8.03042 5461 ft 252 kts 146°
2026-04-24 12:02 58.07165 8.05279 6203 ft 254 kts 122°
2026-04-24 12:02 58.06415 8.08272 6936 ft 252 kts 98°
2026-04-24 12:02 58.06314 8.11524 7664 ft 247 kts 75°
2026-04-24 12:03 58.06840 8.14553 8423 ft 241 kts 53°
2026-04-24 12:03 58.07482 8.16238 8931 ft 237 kts 39°
2026-04-24 12:03 58.08788 8.18101 9737 ft 230 kts 19°
2026-04-24 12:03 58.10278 8.19121 10494 ft 229 kts 11°
2026-04-24 12:04 58.11797 8.20079 11261 ft 231 kts 12°
2026-04-24 12:04 58.13327 8.21061 12048 ft 234 kts 13°
2026-04-24 12:04 58.14809 8.22444 12854 ft 240 kts 21°
2026-04-24 12:04 58.16279 8.23958 13683 ft 241 kts 20°
2026-04-24 12:05 58.17673 8.25797 14425 ft 255 kts 39°
2026-04-24 12:05 58.18675 8.28681 15170 ft 266 kts 53°
2026-04-24 12:05 58.19548 8.31784 15929 ft 268 kts 53°
2026-04-24 12:05 58.20417 8.34912 16708 ft 268 kts 53°
2026-04-24 12:06 58.21293 8.38047 17520 ft 269 kts 52°
2026-04-24 12:06 58.22173 8.41191 18320 ft 271 kts 51°
2026-04-24 12:06 58.23055 8.44353 19025 ft 272 kts 51°
2026-04-24 12:06 58.23940 8.47527 19726 ft 273 kts 51°
2026-04-24 12:07 58.24827 8.50718 20429 ft 274 kts 51°
2026-04-24 12:07 58.25717 8.53922 21145 ft 275 kts 51°
2026-04-24 12:07 58.26612 8.57149 21871 ft 277 kts 50°
2026-04-24 12:07 58.27509 8.60387 22605 ft 278 kts 50°
2026-04-24 12:08 58.28409 8.63643 23349 ft 279 kts 50°
2026-04-24 12:08 58.29309 8.66902 24012 ft 279 kts 50°
2026-04-24 12:08 58.30211 8.70174 24662 ft 279 kts 50°
2026-04-24 12:08 58.31113 8.73448 25275 ft 279 kts 50°
2026-04-24 12:09 58.32012 8.76720 25884 ft 279 kts 49°
2026-04-24 12:09 58.32910 8.79988 26491 ft 279 kts 49°
2026-04-24 12:09 58.33805 8.83254 27094 ft 278 kts 49°
2026-04-24 12:09 58.34698 8.86515 27689 ft 277 kts 49°
2026-04-24 12:10 58.35588 8.89769 28280 ft 277 kts 49°
2026-04-24 12:10 58.36475 8.93016 28860 ft 276 kts 49°
2026-04-24 12:10 58.37360 8.96262 29425 ft 276 kts 49°
2026-04-24 12:11 58.39122 9.02739 30465 ft 275 kts 49°
2026-04-24 12:11 58.40001 9.05978 30933 ft 274 kts 49°
2026-04-24 12:11 58.40875 9.09203 31369 ft 274 kts 49°
2026-04-24 12:11 58.41748 9.12425 31813 ft 273 kts 49°
2026-04-24 12:12 58.42616 9.15639 32248 ft 272 kts 49°
2026-04-24 12:12 58.43483 9.18848 32677 ft 272 kts 50°
2026-04-24 12:12 58.44346 9.22049 33099 ft 271 kts 50°
2026-04-24 12:12 58.45208 9.25243 33509 ft 270 kts 49°
2026-04-24 12:13 58.46080 9.28408 33908 ft 269 kts 49°
2026-04-24 12:13 58.46954 9.31564 34262 ft 269 kts 50°
2026-04-24 12:13 58.47784 9.34788 34581 ft 271 kts 52°
2026-04-24 12:13 58.48615 9.38003 34894 ft 269 kts 51°
2026-04-24 12:14 58.49473 9.41182 35212 ft 270 kts 51°
2026-04-24 12:14 58.50335 9.44378 35480 ft 271 kts 52°
2026-04-24 12:14 58.51193 9.47598 35755 ft 272 kts 52°
2026-04-24 12:14 58.52050 9.50831 36028 ft 273 kts 53°
2026-04-24 12:15 58.52912 9.54071 36307 ft 274 kts 53°
2026-04-24 12:15 58.53775 9.57322 36578 ft 274 kts 53°
2026-04-24 12:15 58.54637 9.60576 36847 ft 274 kts 53°
2026-04-24 12:15 58.55499 9.63833 37116 ft 275 kts 54°
2026-04-24 12:16 58.56364 9.67108 37375 ft 275 kts 54°
2026-04-24 12:16 58.57228 9.70381 37632 ft 275 kts 54°
2026-04-24 12:16 58.58089 9.73650 37887 ft 276 kts 54°
2026-04-24 12:16 58.58956 9.76946 38142 ft 276 kts 54°
2026-04-24 12:17 58.59820 9.80235 38385 ft 277 kts 55°
2026-04-24 12:17 58.60685 9.83530 38628 ft 277 kts 55°
2026-04-24 12:17 58.61550 9.86834 38833 ft 277 kts 55°
2026-04-24 12:17 58.62415 9.90142 39017 ft 278 kts 56°
2026-04-24 12:18 58.63281 9.93458 39209 ft 278 kts 56°
2026-04-24 12:18 58.64147 9.96778 39388 ft 278 kts 56°
2026-04-24 12:18 58.65012 10.00099 39593 ft 278 kts 57°
2026-04-24 12:18 58.65875 10.03422 39785 ft 278 kts 57°
2026-04-24 12:19 58.66736 10.06735 39971 ft 277 kts 57°
2026-04-24 12:19 58.67595 10.10052 40168 ft 277 kts 58°
2026-04-24 12:19 58.68454 10.13368 40328 ft 278 kts 58°
2026-04-24 12:19 58.69317 10.16706 40480 ft 279 kts 58°
2026-04-24 12:20 58.70178 10.20044 40633 ft 279 kts 58°
2026-04-24 12:20 58.71040 10.23389 40789 ft 279 kts 58°
2026-04-24 12:20 58.71902 10.26741 40945 ft 280 kts 58°
2026-04-24 12:20 58.72766 10.30100 41040 ft 283 kts 58°
2026-04-24 12:21 58.73650 10.33536 41049 ft 290 kts 59°
2026-04-24 12:21 58.74552 10.37058 41051 ft 297 kts 59°
2026-04-24 12:21 58.75474 10.40664 41054 ft 304 kts 59°
2026-04-24 12:22 58.77379 10.48134 41058 ft 318 kts 59°
2026-04-24 12:22 58.79365 10.55949 41064 ft 331 kts 59°
2026-04-24 12:23 58.80988 10.64444 41063 ft 349 kts 77°
2026-04-24 12:23 58.81780 10.73838 41061 ft 360 kts 77°
2026-04-24 12:24 58.82697 10.83470 41061 ft 371 kts 77°
2026-04-24 12:24 58.83584 10.93406 41058 ft 380 kts 77°
2026-04-24 12:25 58.84505 11.03559 41058 ft 388 kts 77°
2026-04-24 12:25 58.85428 11.13938 41053 ft 395 kts 77°
2026-04-24 12:26 58.86361 11.24479 41051 ft 401 kts 78°
2026-04-24 12:26 58.87295 11.35164 41052 ft 406 kts 78°
2026-04-24 12:27 58.88232 11.45979 41043 ft 410 kts 78°
2026-04-24 12:27 58.89168 11.56903 41032 ft 413 kts 77°
2026-04-24 12:28 58.90101 11.67903 41032 ft 416 kts 78°
2026-04-24 12:28 58.91032 11.78983 41017 ft 418 kts 78°
2026-04-24 12:29 58.91955 11.90112 41018 ft 420 kts 78°
2026-04-24 12:29 58.92873 12.01288 41014 ft 421 kts 78°
2026-04-24 12:30 58.93783 12.12492 41010 ft 422 kts 78°
2026-04-24 12:30 58.94687 12.23752 41011 ft 423 kts 78°
2026-04-24 12:31 58.95583 12.35021 41009 ft 424 kts 78°
2026-04-24 12:31 58.96469 12.46319 41008 ft 424 kts 78°
2026-04-24 12:32 58.97347 12.57634 41009 ft 425 kts 78°
2026-04-24 12:32 58.98216 12.68968 41014 ft 426 kts 78°
2026-04-24 12:33 58.99075 12.80315 41010 ft 425 kts 79°
2026-04-24 12:33 58.99925 12.91662 41019 ft 425 kts 79°
2026-04-24 12:34 59.00763 13.02997 41007 ft 424 kts 79°
2026-04-24 12:34 59.01590 13.14318 41007 ft 424 kts 79°
2026-04-24 12:35 59.02406 13.25634 41006 ft 423 kts 79°
2026-04-24 12:35 59.03211 13.36936 41006 ft 423 kts 79°
2026-04-24 12:36 59.04008 13.48263 40773 ft 428 kts 79°
2026-04-24 12:36 59.04409 13.54019 40229 ft 429 kts 79°
2026-04-24 12:36 59.04804 13.59760 39666 ft 428 kts 79°
2026-04-24 12:36 59.05198 13.65485 39108 ft 428 kts 79°
2026-04-24 12:37 59.05591 13.71226 38516 ft 429 kts 79°
2026-04-24 12:37 59.05980 13.76971 37920 ft 430 kts 79°
2026-04-24 12:37 59.06369 13.82742 37354 ft 431 kts 79°
2026-04-24 12:37 59.06756 13.88534 36786 ft 433 kts 79°
2026-04-24 12:38 59.07142 13.94342 36214 ft 434 kts 79°
2026-04-24 12:38 59.07527 14.00169 35628 ft 436 kts 80°
2026-04-24 12:38 59.07910 14.06023 35065 ft 437 kts 80°
2026-04-24 12:39 59.09050 14.23693 33276 ft 440 kts 81°
2026-04-24 12:39 59.09426 14.29608 32696 ft 443 kts 81°
2026-04-24 12:39 59.09804 14.35564 32117 ft 443 kts 81°
2026-04-24 12:40 59.10175 14.41500 31531 ft 442 kts 81°
2026-04-24 12:40 59.10546 14.47471 30937 ft 445 kts 82°
2026-04-24 12:40 59.10917 14.53469 30350 ft 448 kts 82°
2026-04-24 12:40 59.11287 14.59515 29716 ft 451 kts 82°
2026-04-24 12:41 59.11655 14.65577 29100 ft 452 kts 82°
2026-04-24 12:41 59.12022 14.71656 28506 ft 451 kts 82°
2026-04-24 12:41 59.12383 14.77698 27908 ft 447 kts 82°
2026-04-24 12:41 59.12737 14.83673 27324 ft 442 kts 82°
2026-04-24 12:42 59.13085 14.89582 26742 ft 437 kts 82°
2026-04-24 12:42 59.13312 14.93451 26361 ft 433 kts 82°
2026-04-24 12:42 59.13649 14.99243 25799 ft 428 kts 82°
2026-04-24 12:42 59.13979 15.04980 25236 ft 424 kts 82°
2026-04-24 12:43 59.14303 15.10655 24683 ft 419 kts 82°
2026-04-24 12:43 59.14623 15.16265 24131 ft 415 kts 82°
2026-04-24 12:43 59.14936 15.21832 23586 ft 411 kts 82°
2026-04-24 12:43 59.15243 15.27331 23000 ft 406 kts 82°
2026-04-24 12:44 59.15546 15.32786 22462 ft 403 kts 82°
2026-04-24 12:44 59.15843 15.38185 21931 ft 399 kts 82°
2026-04-24 12:44 59.16135 15.43543 21406 ft 396 kts 82°
2026-04-24 12:44 59.16423 15.48858 20885 ft 393 kts 82°
2026-04-24 12:45 59.16707 15.54123 20370 ft 389 kts 82°
2026-04-24 12:45 59.16985 15.59353 19855 ft 387 kts 82°
2026-04-24 12:45 59.17261 15.64548 19346 ft 384 kts 82°
2026-04-24 12:45 59.17531 15.69700 18855 ft 380 kts 82°
2026-04-24 12:46 59.17798 15.74810 18343 ft 377 kts 82°
2026-04-24 12:46 59.18060 15.79876 17812 ft 374 kts 82°
2026-04-24 12:46 59.18314 15.84830 17326 ft 370 kts 82°
2026-04-24 12:46 59.18571 15.89869 16834 ft 367 kts 82°
2026-04-24 12:47 59.18817 15.94731 16358 ft 364 kts 83°
2026-04-24 12:47 59.19062 15.99611 15879 ft 360 kts 83°
2026-04-24 12:47 59.19303 16.04425 15403 ft 355 kts 83°
2026-04-24 12:47 59.19539 16.09211 14933 ft 352 kts 83°
2026-04-24 12:48 59.19770 16.13945 14464 ft 349 kts 83°
2026-04-24 12:48 59.19999 16.18642 14011 ft 346 kts 83°
2026-04-24 12:48 59.20226 16.23304 13533 ft 343 kts 83°
2026-04-24 12:48 59.20446 16.27928 13071 ft 341 kts 83°
2026-04-24 12:49 59.20560 16.32527 12621 ft 339 kts 88°
2026-04-24 12:49 59.20567 16.37122 12175 ft 336 kts 88°
2026-04-24 12:49 59.20578 16.41660 11729 ft 333 kts 88°
2026-04-24 12:49 59.20603 16.46158 11293 ft 330 kts 87°
2026-04-24 12:50 59.20624 16.50611 10859 ft 327 kts 88°
2026-04-24 12:50 59.20636 16.54923 10442 ft 303 kts 88°
2026-04-24 12:50 59.20647 16.58957 10050 ft 292 kts 87°
2026-04-24 12:50 59.20661 16.62858 9656 ft 284 kts 87°
2026-04-24 12:51 59.20672 16.66690 9264 ft 282 kts 87°
2026-04-24 12:51 59.20681 16.70511 8944 ft 280 kts 87°
2026-04-24 12:51 59.20689 16.74300 8912 ft 281 kts 87°
2026-04-24 12:51 59.20698 16.78109 8644 ft 279 kts 87°
2026-04-24 12:52 59.20706 16.81878 8388 ft 277 kts 87°
2026-04-24 12:52 59.20663 16.85633 8129 ft 276 kts 90°
2026-04-24 12:52 59.20551 16.89367 7871 ft 275 kts 91°
2026-04-24 12:52 59.20457 16.93083 7624 ft 274 kts 90°
2026-04-24 12:53 59.20384 16.96777 7368 ft 272 kts 89°
2026-04-24 12:53 59.20308 17.00463 7123 ft 271 kts 90°
2026-04-24 12:53 59.20223 17.04127 6869 ft 269 kts 90°
2026-04-24 12:53 59.20137 17.07763 6621 ft 268 kts 90°
2026-04-24 12:54 59.20053 17.11390 6380 ft 266 kts 89°
2026-04-24 12:54 59.19973 17.14981 6118 ft 265 kts 90°
2026-04-24 12:54 59.19887 17.18564 5860 ft 264 kts 90°
2026-04-24 12:54 59.19802 17.22134 5596 ft 263 kts 90°
2026-04-24 12:55 59.19718 17.25689 5440 ft 262 kts 90°
2026-04-24 12:55 59.19629 17.29251 5307 ft 263 kts 90°
2026-04-24 12:55 59.19543 17.32799 5178 ft 262 kts 90°
2026-04-24 12:55 59.19453 17.36350 5053 ft 262 kts 91°
2026-04-24 12:56 59.19363 17.39890 5004 ft 261 kts 90°
2026-04-24 12:56 59.19274 17.43431 5003 ft 262 kts 90°
2026-04-24 12:56 59.19182 17.46969 5007 ft 261 kts 90°
2026-04-24 12:56 59.19090 17.50504 5000 ft 261 kts 91°
2026-04-24 12:57 59.18995 17.54040 5001 ft 261 kts 91°
2026-04-24 12:57 59.18902 17.57580 5006 ft 262 kts 90°
2026-04-24 12:57 59.18810 17.61108 4997 ft 260 kts 90°
2026-04-24 12:57 59.18715 17.64628 4784 ft 260 kts 91°
2026-04-24 12:58 59.18615 17.68129 4523 ft 257 kts 90°
2026-04-24 12:58 59.18521 17.71615 4265 ft 258 kts 90°
2026-04-24 12:58 59.18423 17.75098 3998 ft 256 kts 91°
2026-04-24 12:58 59.18324 17.78554 3735 ft 255 kts 91°
2026-04-24 12:59 59.18225 17.82014 3484 ft 255 kts 91°
2026-04-24 12:59 59.18129 17.85404 3231 ft 248 kts 91°
2026-04-24 12:59 59.18030 17.88736 2963 ft 241 kts 91°
2026-04-24 12:59 59.17938 17.91946 2707 ft 234 kts 91°
2026-04-24 13:00 59.17843 17.95085 2504 ft 230 kts 90°
2026-04-24 13:00 59.17751 17.98188 2500 ft 231 kts 91°
2026-04-24 13:00 59.17658 18.01320 2509 ft 231 kts 91°
2026-04-24 13:00 59.17565 18.04446 2509 ft 232 kts 91°
2026-04-24 13:01 59.17470 18.07584 2505 ft 231 kts 91°
2026-04-24 13:01 59.17374 18.10721 2509 ft 233 kts 91°
2026-04-24 13:01 59.17465 18.13800 2495 ft 218 kts 74°
2026-04-24 13:01 59.18098 18.16268 2492 ft 195 kts 44°
2026-04-24 13:02 59.19105 18.17919 2497 ft 185 kts 34°
2026-04-24 13:02 59.20111 18.19422 2496 ft 180 kts 34°
2026-04-24 13:02 59.21112 18.20906 2488 ft 182 kts 34°
2026-04-24 13:02 59.22139 18.22345 2491 ft 181 kts 29°
2026-04-24 13:03 59.23324 18.22917 2497 ft 176 kts 354°
2026-04-24 13:03 59.24522 18.22396 2503 ft 176 kts 340°
2026-04-24 13:03 59.25535 18.21144 2492 ft 170 kts 320°
2026-04-24 13:03 59.26302 18.19466 2513 ft 164 kts 309°
2026-04-24 13:04 59.26990 18.17678 2500 ft 165 kts 307°
2026-04-24 13:04 59.27664 18.15859 2493 ft 167 kts 307°
2026-04-24 13:04 59.28334 18.13978 2497 ft 169 kts 306°
2026-04-24 13:04 59.28987 18.12165 2473 ft 156 kts 307°
2026-04-24 13:05 59.29602 18.10460 2246 ft 154 kts 306°
2026-04-24 13:05 59.30199 18.08779 2011 ft 146 kts 307°
2026-04-24 13:05 59.30775 18.07192 1780 ft 141 kts 305°
2026-04-24 13:05 59.31327 18.05630 1555 ft 137 kts 306°
2026-04-24 13:06 59.31872 18.04112 1329 ft 136 kts 306°
2026-04-24 13:06 59.32416 18.02593 1120 ft 134 kts 306°
2026-04-24 13:06 59.32947 18.01145 957 ft 126 kts 305°
2026-04-24 13:06 59.33427 17.99810 713 ft 116 kts 305°
2026-04-24 13:07 59.33875 17.98543 492 ft 107 kts 304°
2026-04-24 13:07 59.34276 17.97427 348 ft 94 kts 303°
2026-04-24 13:07 59.34644 17.96380 191 ft 97 kts 303°
2026-04-24 13:07 59.35032 17.95291 58 ft 96 kts 303°
2026-04-24 13:08 59.35382 17.94312 28 ft 79 kts 305°
2026-04-24 13:08 59.35597 17.93714 33 ft 41 kts 305°
2026-04-24 13:08 59.35700 17.93537 30 ft 15 kts 33°
2026-04-24 13:09 59.35776 17.93641 35 ft 7 kts 39°
2026-04-24 13:09 59.35766 17.93776 35 ft 17 kts 126°
2026-04-24 13:09 59.35678 17.94026 35 ft 24 kts 124°
2026-04-24 13:09 59.35579 17.94150 35 ft 18 kts 160°
2026-04-24 13:10 59.35498 17.94338 35 ft 19 kts 125°
2026-04-24 13:10 59.35419 17.94562 35 ft 21 kts 126°
2026-04-24 13:10 59.35336 17.94792 35 ft 21 kts 124°
2026-04-24 13:10 59.35301 17.95017 35 ft 17 kts 98°
2026-04-24 13:11 59.35259 17.95186 35 ft 12 kts 91°
2026-04-24 13:11 59.35293 17.95269 35 ft 8 kts 71°
2026-04-24 13:11 59.35291 17.95351 35 ft 3 kts 144°
2026-04-24 13:11 59.35290 17.95352 35 ft 0 kts 143°